Holdrege, NE

12:00 PM CST on December 07, 2016 (GMT -0600)
Brewster

Weather History for KHDE - April, 2013

Change the Weather History Date:

Thursday, April 11, 2013

  Actual Average Record
Temperature  
Mean Temperature 28 °F -  
Max Temperature 35 °F 63 °F 88 °F (1968)
Min Temperature 23 °F 35 °F 15 °F (1997)
Degree Days  
Heating Degree Days 36    
Moisture  
Dew Point 24 °F    
Average Humidity 79    
Maximum Humidity 90    
Minimum Humidity 69    
Precipitation  
Precipitation 0.00 in - - ()
Sea Level Pressure  
Sea Level Pressure 29.78 in    
Wind  
Wind Speed 14 mph (NW)    
Max Wind Speed 23 mph    
Max Gust Speed 30 mph    
Visibility 10 miles    
Events Snow    
Averages and records for this station are not official NWS values.
T = Trace of Precipitation, MM = Missing Value Source: NWS Daily Summary

Daily Weather History Graph

Daily Weather History Graph

Search for Another Location

Airport or City:

Trip Planner

Search our weather history database for the weather conditions in past years. The results will help you decide how hot, cold, wet, or windy it might be!

Date:

Astronomy

Apr. 11, 2013 Rise Set
Actual Time 7:04 AM CDT 8:12 PM CDT
Civil Twilight 6:36 AM CDT 8:40 PM CDT
Nautical Twilight 6:03 AM CDT 9:14 PM CDT
Astronomical Twilight 5:28 AM CDT 9:49 PM CDT
Moon 7:36 AM CDT (4/11) 9:48 PM CDT (4/11)
Length of Visible Light 14h 04m
Length of Day
13h 07m
New Moon, 2% of the Moon is Illuminated
Apr 11
New Moon
Apr 18
First Quarter
Apr 25
Full
May 2
Last Quarter
May 9
New

Hourly Weather History & Observations

Time (CDT) Temp. Windchill Dew Point Humidity Pressure Visibility Wind Dir Wind Speed Gust Speed Precip Events Conditions
12:15 AM 27.5 °F 15.9 °F 23.9 °F 86% 29.91 in 2.0 mi NW 15.0 mph - N/A Snow Light Snow
12:35 AM 27.3 °F 16.1 °F 24.4 °F 89% 29.90 in 3.0 mi NW 13.8 mph 19.6 mph N/A Snow Light Snow
12:55 AM 27.1 °F 15.4 °F 24.3 °F 89% 29.90 in 3.0 mi WNW 15.0 mph 18.4 mph N/A Snow Light Snow
1:15 AM 26.6 °F 15.2 °F 23.9 °F 90% 29.89 in 4.0 mi WNW 13.8 mph - N/A Snow Light Snow
1:35 AM 26.2 °F 15.2 °F 23.5 °F 90% 29.88 in 5.0 mi WNW 12.7 mph - N/A   Overcast
1:55 AM 26.1 °F 13.6 °F 23.0 °F 88% 29.87 in 10.0 mi WNW 16.1 mph - N/A   Mostly Cloudy
2:15 AM 25.7 °F 14.0 °F 22.6 °F 88% 29.86 in 10.0 mi WNW 13.8 mph 18.4 mph N/A   Scattered Clouds
2:35 AM 25.7 °F 14.0 °F 22.1 °F 86% 29.85 in 10.0 mi WNW 13.8 mph - N/A   Scattered Clouds
2:55 AM 25.2 °F 12.9 °F 21.6 °F 86% 29.83 in 10.0 mi WNW 15.0 mph 19.6 mph N/A   Clear
3:15 AM 25.2 °F 12.9 °F 21.2 °F 85% 29.81 in 10.0 mi WNW 15.0 mph - N/A   Clear
3:35 AM 24.8 °F 13.4 °F 21.2 °F 86% 29.80 in 10.0 mi WNW 12.7 mph - N/A   Clear
3:55 AM 24.8 °F 13.4 °F 21.0 °F 86% 29.79 in 10.0 mi WNW 12.7 mph - N/A   Clear
4:15 AM 24.8 °F 13.4 °F 21.0 °F 86% 29.78 in 10.0 mi WNW 12.7 mph 18.4 mph N/A   Clear
4:35 AM 24.4 °F 13.5 °F 20.7 °F 86% 29.77 in 10.0 mi WNW 11.5 mph - N/A   Clear
4:55 AM 24.3 °F 13.3 °F 20.3 °F 85% 29.76 in 10.0 mi WNW 11.5 mph - N/A   Clear
5:15 AM 23.9 °F 12.9 °F 20.3 °F 86% 29.75 in 10.0 mi WNW 11.5 mph - N/A   Clear
5:35 AM 23.9 °F 12.9 °F 20.3 °F 86% 29.75 in 10.0 mi WNW 11.5 mph - N/A   Clear
5:55 AM 23.7 °F 13.3 °F 20.1 °F 86% 29.74 in 10.0 mi WNW 10.4 mph - N/A   Scattered Clouds
6:15 AM 24.4 °F 14.2 °F 20.5 °F 85% 29.75 in 10.0 mi WNW 10.4 mph - N/A   Mostly Cloudy
6:35 AM 24.4 °F 16.5 °F 20.7 °F 86% 29.76 in 10.0 mi WNW 6.9 mph - N/A   Overcast
6:55 AM 23.9 °F 15.8 °F 19.9 °F 85% 29.76 in 10.0 mi West 6.9 mph - N/A   Mostly Cloudy
7:15 AM 24.3 °F 18.4 °F 20.7 °F 86% 29.77 in 10.0 mi West 4.6 mph - N/A   Mostly Cloudy
7:35 AM 24.8 °F 19.1 °F 21.0 °F 86% 29.77 in 10.0 mi West 4.6 mph - N/A   Overcast
7:55 AM 25.5 °F 18.7 °F 21.7 °F 86% 29.77 in 10.0 mi West 5.8 mph - N/A   Overcast
8:15 AM 26.4 °F 18.0 °F 22.1 °F 84% 29.77 in 10.0 mi WNW 8.1 mph - N/A   Overcast
8:35 AM 27.5 °F 18.6 °F 22.5 °F 81% 29.77 in 10.0 mi WNW 9.2 mph - N/A   Overcast
8:55 AM 28.2 °F 18.9 °F 22.8 °F 80% 29.77 in 10.0 mi WNW 10.4 mph 16.1 mph N/A   Overcast
9:15 AM 28.8 °F 18.4 °F 23.0 °F 79% 29.77 in 10.0 mi WNW 12.7 mph - N/A   Overcast
9:35 AM 29.1 °F 16.7 °F 23.0 °F 78% 29.76 in 10.0 mi NW 18.4 mph 21.9 mph N/A   Overcast
9:55 AM 29.7 °F 17.4 °F 23.4 °F 77% 29.76 in 10.0 mi NW 18.4 mph 21.9 mph N/A   Mostly Cloudy
10:15 AM 30.2 °F 18.9 °F 23.7 °F 77% 29.75 in 10.0 mi NW 16.1 mph 24.2 mph N/A Snow Light Snow
10:35 AM 30.9 °F 19.1 °F 24.4 °F 77% 29.76 in 10.0 mi NW 18.4 mph 25.3 mph N/A Snow Light Snow
10:55 AM 30.9 °F 18.1 °F 24.1 °F 76% 29.76 in 10.0 mi NW 21.9 mph - N/A   Overcast
11:15 AM 31.3 °F 20.3 °F 24.6 °F 76% 29.76 in 10.0 mi NW 16.1 mph 25.3 mph N/A   Overcast
11:35 AM 31.6 °F 20.0 °F 24.4 °F 75% 29.75 in 10.0 mi WNW 18.4 mph 24.2 mph N/A   Overcast
12:15 PM 32.2 °F 20.4 °F 24.6 °F 74% 29.75 in 10.0 mi NW 19.6 mph 25.3 mph N/A   Overcast
12:35 PM 32.4 °F 19.7 °F 25.3 °F 75% 29.75 in 10.0 mi NW 23.0 mph 28.8 mph N/A   Overcast
12:55 PM 32.0 °F 20.8 °F 24.6 °F 74% 29.74 in 10.0 mi NW 17.3 mph 25.3 mph N/A   Overcast
1:15 PM 33.1 °F 21.2 °F 25.5 °F 74% 29.74 in 10.0 mi NW 20.7 mph 27.6 mph N/A   Overcast
1:35 PM 33.3 °F 20.9 °F 24.8 °F 71% 29.74 in 10.0 mi NW 23.0 mph 27.6 mph N/A   Overcast
1:55 PM 32.9 °F 21.0 °F 24.4 °F 71% 29.74 in 10.0 mi NW 20.7 mph 28.8 mph N/A   Overcast
2:15 PM 33.1 °F 21.2 °F 25.2 °F 73% 29.74 in 10.0 mi NW 20.7 mph 29.9 mph N/A   Overcast
2:35 PM 33.1 °F 21.5 °F 25.0 °F 72% 29.74 in 10.0 mi NW 19.6 mph 29.9 mph N/A   Overcast
2:55 PM 34.0 °F 22.1 °F 25.2 °F 70% 29.74 in 10.0 mi NW 21.9 mph 27.6 mph N/A   Overcast
3:15 PM 34.0 °F 22.7 °F 25.9 °F 72% 29.74 in 10.0 mi NW 19.6 mph 26.5 mph N/A   Overcast
3:35 PM 34.2 °F 23.3 °F 26.6 °F 74% 29.74 in 10.0 mi NW 18.4 mph 27.6 mph N/A   Overcast
3:55 PM 34.3 °F 23.5 °F 27.5 °F 76% 29.74 in 10.0 mi NW 18.4 mph 24.2 mph N/A   Overcast
4:15 PM 34.3 °F 23.5 °F 26.1 °F 72% 29.74 in 10.0 mi NW 18.4 mph 27.6 mph N/A   Overcast
4:35 PM 34.7 °F 24.0 °F 25.7 °F 70% 29.74 in 10.0 mi NW 18.4 mph 25.3 mph N/A   Overcast
4:55 PM 33.8 °F 23.2 °F 26.6 °F 75% 29.74 in 10.0 mi NNW 17.3 mph 23.0 mph N/A   Overcast
5:15 PM 34.0 °F 23.8 °F 26.2 °F 73% 29.74 in 10.0 mi NNW 16.1 mph 21.9 mph N/A   Overcast
5:35 PM 34.2 °F 24.4 °F 26.6 °F 74% 29.74 in 10.0 mi NNW 15.0 mph - N/A   Overcast
5:55 PM 34.2 °F 24.0 °F 26.2 °F 73% 29.74 in 10.0 mi NW 16.1 mph 19.6 mph N/A   Overcast
6:15 PM 34.3 °F 23.5 °F 25.3 °F 70% 29.75 in 10.0 mi NW 18.4 mph 25.3 mph N/A   Overcast
6:35 PM 34.2 °F 24.0 °F 24.8 °F 69% 29.75 in 10.0 mi NW 16.1 mph 24.2 mph N/A   Overcast
6:55 PM 34.0 °F 24.2 °F 25.3 °F 71% 29.76 in 10.0 mi NNW 15.0 mph 23.0 mph N/A   Overcast
7:15 PM 34.2 °F 25.7 °F 25.5 °F 71% 29.76 in 10.0 mi NNW 11.5 mph - N/A   Overcast
7:35 PM 33.4 °F 24.3 °F 25.0 °F 71% 29.77 in 10.0 mi NNW 12.7 mph 18.4 mph N/A   Overcast
7:55 PM 33.3 °F 24.6 °F 25.7 °F 74% 29.77 in 10.0 mi NNW 11.5 mph 17.3 mph N/A   Overcast
8:15 PM 32.9 °F 23.7 °F 25.2 °F 73% 29.77 in 10.0 mi NNW 12.7 mph - N/A   Overcast
8:35 PM 32.4 °F 23.0 °F 25.5 °F 76% 29.77 in 10.0 mi NW 12.7 mph - N/A   Mostly Cloudy
8:55 PM 32.2 °F 23.8 °F 25.7 °F 77% 29.78 in 10.0 mi NNW 10.4 mph 16.1 mph N/A   Scattered Clouds
9:15 PM 32.4 °F 23.5 °F 25.3 °F 75% 29.78 in 10.0 mi NW 11.5 mph - N/A   Mostly Cloudy
9:35 PM 32.0 °F 23.6 °F 25.5 °F 77% 29.79 in 10.0 mi NW 10.4 mph - N/A   Scattered Clouds
9:55 PM 32.0 °F 24.2 °F 25.7 °F 78% 29.80 in 10.0 mi NW 9.2 mph - N/A   Clear
10:15 PM 32.0 °F 24.2 °F 25.3 °F 76% 29.81 in 10.0 mi NW 9.2 mph - N/A   Clear
10:35 PM 31.5 °F 22.9 °F 25.7 °F 79% 29.81 in 10.0 mi NW 10.4 mph - N/A   Clear
10:55 PM 31.8 °F 22.8 °F 26.6 °F 81% 29.82 in 10.0 mi NW 11.5 mph 18.4 mph N/A   Mostly Cloudy
11:15 PM 32.2 °F 22.3 °F 25.0 °F 75% 29.82 in 10.0 mi NNW 13.8 mph 20.7 mph N/A   Overcast
11:35 PM 32.0 °F 22.5 °F 24.6 °F 74% 29.82 in 10.0 mi NNW 12.7 mph 18.4 mph N/A   Scattered Clouds
11:55 PM 31.3 °F 21.6 °F 25.3 °F 79% 29.83 in 10.0 mi NW 12.7 mph 17.3 mph N/A   Clear